Mora, MN

8:56 PM CDT on August 31, 2016 (GMT -0500)
Mora Municipal

Weather History for KJMR - March, 2014

Change the Weather History Date:

Saturday, March 22, 2014

  Actual Average Record
Temperature  
Mean Temperature 11 °F -  
Max Temperature 17 °F 43 °F 71 °F (1945)
Min Temperature 5 °F 20 °F -9 °F (1940)
Degree Days  
Heating Degree Days 54    
Moisture  
Dew Point 0 °F    
Average Humidity 60    
Maximum Humidity 73    
Minimum Humidity 49    
Precipitation  
Precipitation 0.00 in - - ()
Sea Level Pressure  
Sea Level Pressure 30.38 in    
Wind  
Wind Speed 14 mph (NW)    
Max Wind Speed 21 mph    
Max Gust Speed 30 mph    
Visibility 10 miles    
Events      
Averages and records for this station are not official NWS values.
T = Trace of Precipitation, MM = Missing Value Source: NWS Daily Summary

Daily Weather History Graph

Daily Weather History Graph

Search for Another Location

Airport or City:

Trip Planner

Search our weather history database for the weather conditions in past years. The results will help you decide how hot, cold, wet, or windy it might be!

Date:

Astronomy

Mar. 22, 2014 Rise Set
Actual Time 7:12 AM CDT 7:28 PM CDT
Civil Twilight 6:42 AM CDT 7:58 PM CDT
Nautical Twilight 6:07 AM CDT 8:33 PM CDT
Astronomical Twilight 5:31 AM CDT 9:09 PM CDT
Moon 1:03 AM CDT (3/22) 10:40 AM CDT (3/22)
Length of Visible Light 13h 15m
Length of Day
12h 16m
Waning Gibbous, 65% of the Moon is Illuminated
Mar 22
Waning Gibbous
Mar 23
Last Quarter
Mar 30
New
Apr 7
First Quarter
Apr 15
Full

Hourly Weather History & Observations

Time (CDT) Temp. Windchill Dew Point Humidity Pressure Visibility Wind Dir Wind Speed Gust Speed Precip Events Conditions
12:11 AM 14.0 °F -2.5 °F 6.8 °F 73% 30.18 in 10.0 mi NNW 17.3 mph 27.6 mph N/A   Clear
12:31 AM 14.0 °F -3.0 °F 5.0 °F 67% 30.18 in 10.0 mi NNW 18.4 mph 24.2 mph N/A   Clear
12:51 AM 12.2 °F -5.3 °F 3.2 °F 67% 30.19 in 10.0 mi NNW 18.4 mph 27.6 mph N/A   Clear
1:11 AM 12.2 °F -3.7 °F 3.2 °F 67% 30.20 in 10.0 mi NW 15.0 mph 21.9 mph N/A   Clear
1:31 AM 12.2 °F -4.3 °F 3.2 °F 67% 30.21 in 10.0 mi NNW 16.1 mph 21.9 mph N/A   Clear
1:51 AM 12.2 °F -4.3 °F 3.2 °F 67% 30.22 in 10.0 mi NW 16.1 mph 25.3 mph N/A   Clear
2:11 AM 12.2 °F -5.3 °F 3.2 °F 67% 30.23 in 10.0 mi NNW 18.4 mph 29.9 mph N/A   Clear
2:31 AM 10.4 °F -7.7 °F 1.4 °F 67% 30.24 in 10.0 mi NW 18.4 mph 25.3 mph N/A   Clear
2:51 AM 10.4 °F -8.6 °F 1.4 °F 67% 30.24 in 10.0 mi NW 20.7 mph 24.2 mph N/A   Clear
3:11 AM 10.4 °F -7.7 °F 1.4 °F 67% 30.24 in 10.0 mi NW 18.4 mph 27.6 mph N/A   Clear
3:31 AM 8.6 °F -10.5 °F -0.4 °F 67% 30.24 in 10.0 mi NW 19.6 mph 27.6 mph N/A   Clear
3:51 AM 8.6 °F -6.3 °F -0.4 °F 67% 30.26 in 10.0 mi NNW 11.5 mph 21.9 mph N/A   Clear
4:11 AM 6.8 °F -10.0 °F -0.4 °F 72% 30.27 in 10.0 mi NW 13.8 mph 23.0 mph N/A   Clear
4:31 AM 6.8 °F -11.8 °F -0.4 °F 72% 30.27 in 10.0 mi NW 17.3 mph 24.2 mph N/A   Clear
4:51 AM 6.8 °F -11.3 °F -0.4 °F 72% 30.27 in 10.0 mi NNW 16.1 mph 23.0 mph N/A   Clear
5:11 AM 6.8 °F -11.3 °F -0.4 °F 72% 30.29 in 10.0 mi NNW 16.1 mph - N/A   Clear
5:31 AM 5.0 °F -13.0 °F -4.0 °F 66% 30.30 in 10.0 mi NNW 15.0 mph 20.7 mph N/A   Clear
5:51 AM 5.0 °F -13.6 °F -4.0 °F 66% 30.30 in 10.0 mi NW 16.1 mph 21.9 mph N/A   Clear
6:11 AM 5.0 °F -13.0 °F -4.0 °F 66% 30.31 in 10.0 mi NW 15.0 mph 20.7 mph N/A   Scattered Clouds
6:31 AM 5.0 °F -11.6 °F -4.0 °F 66% 30.33 in 10.0 mi NNW 12.7 mph 20.7 mph N/A   Clear
6:51 AM 5.0 °F -11.6 °F -4.0 °F 66% 30.34 in 10.0 mi NNW 12.7 mph 20.7 mph N/A   Clear
7:11 AM 5.0 °F -12.3 °F -4.0 °F 66% 30.35 in 10.0 mi NNW 13.8 mph 20.7 mph N/A   Clear
7:31 AM 5.0 °F -10.0 °F -4.0 °F 66% 30.36 in 10.0 mi NNW 10.4 mph - N/A   Clear
7:51 AM 5.0 °F -10.0 °F -4.0 °F 66% 30.37 in 10.0 mi NNW 10.4 mph - N/A   Clear
8:11 AM 5.0 °F -11.6 °F -5.8 °F 61% 30.37 in 10.0 mi NNW 12.7 mph - N/A   Clear
8:31 AM 6.8 °F -11.3 °F -4.0 °F 61% 30.38 in 10.0 mi NNW 16.1 mph 21.9 mph N/A   Clear
8:51 AM 6.8 °F -9.3 °F -4.0 °F 61% 30.39 in 10.0 mi NW 12.7 mph 20.7 mph N/A   Clear
9:11 AM 6.8 °F -11.3 °F -4.0 °F 61% 30.39 in 10.0 mi NNW 16.1 mph 21.9 mph N/A   Clear
9:31 AM 8.6 °F -8.3 °F -4.0 °F 57% 30.40 in 10.0 mi NW 15.0 mph 20.7 mph N/A   Clear
9:51 AM 8.6 °F -8.9 °F -4.0 °F 57% 30.41 in 10.0 mi NNW 16.1 mph - N/A   Clear
10:11 AM 10.4 °F -4.8 °F -4.0 °F 52% 30.41 in 10.0 mi NNW 12.7 mph 18.4 mph N/A   Clear
10:31 AM 10.4 °F -4.8 °F -4.0 °F 52% 30.41 in 10.0 mi NNW 12.7 mph - N/A   Clear
10:51 AM 12.2 °F -3.1 °F -0.4 °F 57% 30.42 in 10.0 mi NNW 13.8 mph 18.4 mph N/A   Clear
11:11 AM 12.2 °F -4.3 °F -2.2 °F 53% 30.42 in 10.0 mi NNW 16.1 mph 21.9 mph N/A   Clear
11:31 AM 12.2 °F -3.7 °F -2.2 °F 53% 30.42 in 10.0 mi NW 15.0 mph 19.6 mph N/A   Clear
11:51 AM 12.2 °F -3.1 °F -0.4 °F 57% 30.42 in 10.0 mi NNW 13.8 mph - N/A   Clear
12:11 PM 14.0 °F -1.4 °F -0.4 °F 53% 30.43 in 10.0 mi NNW 15.0 mph 20.7 mph N/A   Clear
12:31 PM 14.0 °F -0.2 °F -0.4 °F 53% 30.43 in 10.0 mi NW 12.7 mph 18.4 mph N/A   Clear
12:51 PM 14.0 °F -0.2 °F -0.4 °F 53% 30.43 in 10.0 mi NNW 12.7 mph - N/A   Clear
1:11 PM 15.8 °F 0.9 °F 1.4 °F 53% 30.43 in 10.0 mi NW 15.0 mph 18.4 mph N/A   Clear
1:31 PM 15.8 °F 2.1 °F -0.4 °F 49% 30.42 in 10.0 mi NW 12.7 mph 17.3 mph N/A   Clear
1:51 PM 17.6 °F 4.3 °F 1.4 °F 49% 30.42 in 10.0 mi NNW 12.7 mph 19.6 mph N/A   Clear
2:11 PM 17.6 °F 4.3 °F 1.4 °F 49% 30.42 in 10.0 mi NW 12.7 mph 19.6 mph N/A   Clear
2:31 PM 17.6 °F 3.2 °F 1.4 °F 49% 30.42 in 10.0 mi NNW 15.0 mph 20.7 mph N/A   Clear
2:51 PM 17.6 °F 5.0 °F 1.4 °F 49% 30.42 in 10.0 mi North 11.5 mph 20.7 mph N/A   Clear
3:11 PM 17.6 °F 4.3 °F 1.4 °F 49% 30.41 in 10.0 mi NNW 12.7 mph 20.7 mph N/A   Clear
3:31 PM 17.6 °F 3.7 °F 1.4 °F 49% 30.41 in 10.0 mi NNW 13.8 mph - N/A   Clear
3:51 PM 17.6 °F 3.2 °F 1.4 °F 49% 30.41 in 10.0 mi NNW 15.0 mph 20.7 mph N/A   Clear
4:11 PM 17.6 °F 3.7 °F 1.4 °F 49% 30.41 in 10.0 mi NNW 13.8 mph 21.9 mph N/A   Clear
4:31 PM 17.6 °F 5.7 °F 1.4 °F 49% 30.41 in 10.0 mi NNW 10.4 mph 20.7 mph N/A   Clear
4:51 PM 17.6 °F 3.2 °F 1.4 °F 49% 30.41 in 10.0 mi NNW 15.0 mph 23.0 mph N/A   Clear
5:11 PM 17.6 °F 5.7 °F 1.4 °F 49% 30.42 in 10.0 mi NNW 10.4 mph - N/A   Clear
5:31 PM 17.6 °F 4.3 °F 1.4 °F 49% 30.42 in 10.0 mi NNW 12.7 mph 19.6 mph N/A   Clear
5:51 PM 17.6 °F 6.4 °F 1.4 °F 49% 30.42 in 10.0 mi NNW 9.2 mph 18.4 mph N/A   Clear
6:11 PM 17.6 °F 4.3 °F 3.2 °F 53% 30.43 in 10.0 mi NW 12.7 mph - N/A   Clear
6:31 PM 15.8 °F 1.4 °F 1.4 °F 53% 30.43 in 10.0 mi NNW 13.8 mph - N/A   Clear
6:51 PM 14.0 °F 1.2 °F 1.4 °F 57% 30.44 in 10.0 mi NW 10.4 mph - N/A   Clear
7:11 PM 14.0 °F 2.0 °F 1.4 °F 57% 30.44 in 10.0 mi NNW 9.2 mph - N/A   Clear
7:31 PM 14.0 °F 2.0 °F 1.4 °F 57% 30.44 in 10.0 mi NNW 9.2 mph - N/A   Clear
7:51 PM 12.2 °F 1.7 °F 1.4 °F 62% 30.44 in 10.0 mi NW 6.9 mph - N/A   Clear
8:11 PM 12.2 °F 2.9 °F -0.4 °F 57% 30.45 in 10.0 mi NW 5.8 mph - N/A   Clear
8:31 PM 12.2 °F 4.3 °F 1.4 °F 62% 30.46 in 10.0 mi NW 4.6 mph - N/A   Clear
8:51 PM 12.2 °F 6.1 °F 1.4 °F 62% 30.47 in 10.0 mi NW 3.5 mph - N/A   Clear
9:11 PM 12.2 °F 6.1 °F 1.4 °F 62% 30.47 in 10.0 mi NW 3.5 mph - N/A   Clear
9:31 PM 10.4 °F 4.0 °F -0.4 °F 62% 30.47 in 10.0 mi NW 3.5 mph - N/A   Clear
9:51 PM 6.8 °F -0.1 °F -2.2 °F 67% 30.47 in 10.0 mi NW 3.5 mph - N/A   Clear
10:11 PM 6.8 °F -0.1 °F -0.4 °F 72% 30.48 in 10.0 mi WNW 3.5 mph - N/A   Clear
10:31 PM 6.8 °F -0.1 °F -0.4 °F 72% 30.48 in 10.0 mi WNW 3.5 mph - N/A   Clear
10:51 PM 8.6 °F 0.1 °F -0.4 °F 67% 30.48 in 10.0 mi WNW 4.6 mph - N/A   Clear
11:11 PM 8.6 °F -1.3 °F -0.4 °F 67% 30.49 in 10.0 mi NW 5.8 mph - N/A   Clear
11:31 PM 8.6 °F -2.6 °F -0.4 °F 67% 30.49 in 10.0 mi NW 6.9 mph - N/A   Clear
11:51 PM 8.6 °F -1.3 °F -0.4 °F 67% 30.49 in 10.0 mi NW 5.8 mph - N/A   Clear